| time (UTC) | temp F | wind direction | speed MPH | gust MPH | rain 1hr in | rain 24hr in | rain mn in | humidity % | barometer mb |
| 20260509070601 | 77 | 0 | 0.0 | 2.0 | 0.00 | 0.00 | 0.00 | 84 | 1014.0 |
| 20260509065601 | 78 | 0 | 0.0 | 1.0 | 0.00 | 0.00 | 0.00 | 84 | 1014.1 |
| 20260509065102 | 78 | 0 | 0.0 | 2.0 | 0.00 | 0.00 | 0.00 | 84 | 1014.1 |
| 20260509064620 | 78 | 0 | 0.0 | 2.0 | 0.00 | 0.00 | 0.00 | 84 | 1014.1 |
| 20260509064104 | 78 | 0 | 0.0 | 0.0 | 0.00 | 0.00 | 0.00 | 84 | 1014.2 |
| 20260509063601 | 78 | 0 | 0.0 | 1.0 | 0.00 | 0.00 | 0.00 | 84 | 1014.3 |
| 20260509063101 | 78 | 0 | 0.0 | 1.0 | 0.00 | 0.00 | 0.00 | 84 | 1014.3 |
| 20260509062558 | 78 | 0 | 0.0 | 2.0 | 0.00 | 0.00 | 0.00 | 84 | 1014.3 |
| 20260509062100 | 78 | 136 | 0.0 | 3.0 | 0.00 | 0.00 | 0.00 | 84 | 1014.3 |
| 20260509061604 | 78 | 0 | 0.0 | 3.0 | 0.00 | 0.00 | 0.00 | 84 | 1014.4 |
| 20260509061101 | 78 | 0 | 0.0 | 3.0 | 0.00 | 0.00 | 0.00 | 84 | 1014.4 |
| 20260509060601 | 78 | 160 | 0.0 | 2.0 | 0.00 | 0.00 | 0.00 | 84 | 1014.5 |
| 20260509060058 | 78 | 0 | 0.0 | 2.0 | 0.00 | 0.00 | 0.00 | 84 | 1014.4 |
| 20260509055602 | 78 | 0 | 0.0 | 2.0 | 0.00 | 0.00 | 0.00 | 84 | 1014.4 |
| 20260509055100 | 78 | 0 | 0.0 | 2.0 | 0.00 | 0.00 | 0.00 | 84 | 1014.5 |
| 20260509054604 | 78 | 0 | 0.0 | 2.0 | 0.00 | 0.00 | 0.00 | 84 | 1014.6 |
| 20260509054100 | 79 | 0 | 0.0 | 2.0 | 0.00 | 0.00 | 0.00 | 84 | 1014.6 |
| 20260509053602 | 78 | 0 | 0.0 | 3.0 | 0.00 | 0.00 | 0.00 | 84 | 1014.6 |
| 20260509053111 | 79 | 0 | 0.0 | 3.0 | 0.00 | 0.00 | 0.00 | 84 | 1014.6 |
| 20260509052601 | 79 | 0 | 0.0 | 3.0 | 0.00 | 0.00 | 0.00 | 84 | 1014.9 |
| 20260509052101 | 78 | 0 | 0.0 | 3.0 | 0.00 | 0.00 | 0.00 | 84 | 1014.8 |
| 20260509051559 | 79 | 0 | 0.0 | 4.0 | 0.00 | 0.00 | 0.00 | 84 | 1014.9 |
| 20260509051058 | 79 | 0 | 0.0 | 4.0 | 0.00 | 0.00 | 0.00 | 84 | 1014.9 |
| 20260509050603 | 79 | 0 | 0.0 | 1.0 | 0.00 | 0.00 | 0.00 | 84 | 1014.9 |
| 20260509050101 | 79 | 0 | 0.0 | 1.0 | 0.00 | 0.00 | 0.00 | 84 | 1014.8 |
| 20260509045601 | 79 | 0 | 0.0 | 5.0 | 0.00 | 0.00 | 0.00 | 84 | 1014.9 |
| 20260509045101 | 79 | 0 | 0.0 | 5.0 | 0.00 | 0.00 | 0.00 | 84 | 1015.0 |
| 20260509044601 | 79 | 0 | 0.0 | 2.0 | 0.00 | 0.00 | 0.00 | 84 | 1015.1 |
| 20260509044101 | 79 | 0 | 0.0 | 0.0 | 0.00 | 0.00 | 0.00 | 84 | 1015.0 |
| 20260509043601 | 79 | 0 | 0.0 | 0.0 | 0.00 | 0.00 | 0.00 | 84 | 1015.0 |
| 20260509043104 | 79 | 0 | 0.0 | 0.0 | 0.00 | 0.00 | 0.00 | 84 | 1015.1 |
| 20260509042558 | 79 | 0 | 0.0 | 0.0 | 0.00 | 0.00 | 0.00 | 84 | 1015.2 |
| 20260509042101 | 79 | 0 | 0.0 | 1.0 | 0.00 | 0.00 | 0.00 | 84 | 1015.2 |
| 20260509041620 | 79 | 0 | 0.0 | 2.0 | 0.00 | 0.00 | 0.00 | 84 | 1015.2 |
| 20260509041102 | 79 | 0 | 0.0 | 2.0 | 0.00 | 0.00 | 0.00 | 84 | 1015.2 |
| 20260509040601 | 79 | 0 | 0.0 | 5.0 | 0.00 | 0.00 | 0.00 | 84 | 1015.2 |
| 20260509040100 | 79 | 0 | 0.0 | 5.0 | 0.00 | 0.00 | 0.00 | 84 | 1015.3 |
| 20260509035600 | 79 | 0 | 0.0 | 5.0 | 0.00 | 0.00 | 0.00 | 84 | 1015.4 |
| 20260509035103 | 79 | 97 | 0.0 | 3.0 | 0.00 | 0.00 | 0.00 | 83 | 1015.5 |
| 20260509034601 | 79 | 0 | 0.0 | 3.0 | 0.00 | 0.00 | 0.00 | 83 | 1015.5 |
| 20260509034101 | 79 | 0 | 0.0 | 3.0 | 0.00 | 0.00 | 0.00 | 83 | 1015.5 |
| 20260509033601 | 79 | 0 | 0.0 | 2.0 | 0.00 | 0.00 | 0.00 | 83 | 1015.6 |
| 20260509033101 | 79 | 0 | 0.0 | 2.0 | 0.00 | 0.00 | 0.00 | 83 | 1015.6 |
| 20260509032600 | 80 | 0 | 0.0 | 2.0 | 0.00 | 0.00 | 0.00 | 83 | 1015.5 |
| 20260509032059 | 80 | 0 | 0.0 | 2.0 | 0.00 | 0.00 | 0.00 | 83 | 1015.6 |
| 20260509031559 | 80 | 0 | 0.0 | 2.0 | 0.00 | 0.00 | 0.00 | 83 | 1015.5 |
| 20260509031104 | 80 | 0 | 0.0 | 3.0 | 0.00 | 0.00 | 0.00 | 83 | 1015.6 |
| 20260509030601 | 80 | 0 | 0.0 | 3.0 | 0.00 | 0.00 | 0.00 | 83 | 1015.5 |
| 20260509030101 | 80 | 0 | 0.0 | 3.0 | 0.00 | 0.00 | 0.00 | 83 | 1015.6 |
| 20260509025604 | 80 | 0 | 0.0 | 0.0 | 0.00 | 0.00 | 0.00 | 83 | 1015.7 |
| 20260509025100 | 80 | 0 | 0.0 | 0.0 | 0.00 | 0.00 | 0.00 | 82 | 1015.7 |
| 20260509024606 | 80 | 0 | 0.0 | 0.0 | 0.00 | 0.00 | 0.00 | 82 | 1015.7 |
| 20260509024101 | 80 | 0 | 0.0 | 0.0 | 0.00 | 0.00 | 0.00 | 82 | 1015.6 |
| 20260509023601 | 80 | 0 | 0.0 | 0.0 | 0.00 | 0.00 | 0.00 | 82 | 1015.6 |
| 20260509023112 | 80 | 0 | 0.0 | 2.0 | 0.00 | 0.00 | 0.00 | 82 | 1015.5 |
| 20260509022603 | 80 | 0 | 0.0 | 2.0 | 0.00 | 0.00 | 0.00 | 82 | 1015.4 |
| 20260509022101 | 80 | 0 | 0.0 | 1.0 | 0.00 | 0.00 | 0.00 | 82 | 1015.4 |
| 20260509021559 | 80 | 0 | 0.0 | 0.0 | 0.00 | 0.00 | 0.00 | 82 | 1015.3 |
| 20260509021100 | 80 | 0 | 0.0 | 0.0 | 0.00 | 0.00 | 0.00 | 81 | 1015.2 |
| 20260509020600 | 80 | 0 | 0.0 | 3.0 | 0.00 | 0.00 | 0.00 | 81 | 1015.2 |
| 20260509015600 | 80 | 0 | 0.0 | 3.0 | 0.00 | 0.00 | 0.00 | 81 | 1015.0 |
| 20260509015100 | 80 | 0 | 0.0 | 3.0 | 0.00 | 0.00 | 0.00 | 81 | 1015.0 |
| 20260509014600 | 80 | 117 | 0.0 | 4.0 | 0.00 | 0.00 | 0.00 | 81 | 1015.0 |
| 20260509014057 | 80 | 0 | 0.0 | 4.0 | 0.00 | 0.00 | 0.00 | 81 | 1015.0 |
| 20260509013558 | 80 | 98 | 0.0 | 4.0 | 0.00 | 0.00 | 0.00 | 81 | 1015.0 |
| 20260509013109 | 80 | 0 | 0.0 | 6.0 | 0.00 | 0.00 | 0.00 | 81 | 1014.9 |
| 20260509012600 | 80 | 0 | 0.0 | 6.0 | 0.00 | 0.00 | 0.00 | 81 | 1014.8 |
| 20260509012101 | 80 | 0 | 1.0 | 5.0 | 0.00 | 0.00 | 0.00 | 81 | 1014.7 |
| 20260509011600 | 80 | 0 | 1.0 | 3.0 | 0.00 | 0.00 | 0.00 | 81 | 1014.7 |
| 20260509011100 | 80 | 0 | 0.0 | 2.0 | 0.00 | 0.00 | 0.00 | 80 | 1014.5 |
| 20260509010600 | 80 | 0 | 0.0 | 2.0 | 0.00 | 0.00 | 0.00 | 80 | 1014.5 |
| 20260509010100 | 80 | 0 | 0.0 | 0.0 | 0.00 | 0.00 | 0.00 | 80 | 1014.4 |
| 20260509005600 | 80 | 0 | 0.0 | 0.0 | 0.00 | 0.00 | 0.00 | 80 | 1014.2 |
| 20260509005100 | 81 | 0 | 0.0 | 0.0 | 0.00 | 0.00 | 0.00 | 80 | 1014.2 |
| 20260509004600 | 81 | 0 | 0.0 | 7.0 | 0.00 | 0.00 | 0.00 | 80 | 1014.1 |
| 20260509004101 | 81 | 0 | 0.0 | 7.0 | 0.00 | 0.00 | 0.00 | 80 | 1014.0 |
| 20260509003601 | 81 | 97 | 1.0 | 4.0 | 0.00 | 0.00 | 0.00 | 80 | 1014.0 |
| 20260509003102 | 81 | 0 | 1.0 | 6.0 | 0.00 | 0.00 | 0.00 | 80 | 1014.0 |
| 20260509002603 | 81 | 98 | 1.0 | 6.0 | 0.00 | 0.00 | 0.00 | 80 | 1013.9 |
| 20260509002058 | 81 | 0 | 0.0 | 6.0 | 0.00 | 0.00 | 0.00 | 79 | 1013.8 |
| 20260509001559 | 81 | 109 | 1.0 | 6.0 | 0.00 | 0.00 | 0.00 | 79 | 1013.9 |
| 20260509001058 | 81 | 0 | 1.0 | 9.0 | 0.00 | 0.00 | 0.00 | 79 | 1013.7 |
| 20260509000602 | 81 | 0 | 1.0 | 9.0 | 0.00 | 0.00 | 0.00 | 78 | 1013.7 |
| 20260509000124 | 81 | 136 | 1.0 | 6.0 | 0.00 | 0.00 | 0.00 | 78 | 1013.6 |
| 20260508235600 | 82 | 0 | 0.0 | 9.0 | 0.00 | 0.00 | 0.00 | 78 | 1013.5 |
| 20260508235100 | 82 | 0 | 0.0 | 9.0 | 0.00 | 0.00 | 0.00 | 78 | 1013.3 |
| 20260508234602 | 82 | 123 | 2.0 | 7.0 | 0.00 | 0.00 | 0.00 | 78 | 1013.3 |
| 20260508234102 | 82 | 90 | 2.0 | 9.0 | 0.00 | 0.00 | 0.00 | 77 | 1013.2 |
| 20260508233602 | 82 | 114 | 2.0 | 9.0 | 0.00 | 0.00 | 0.00 | 77 | 1013.3 |
| 20260508233117 | 82 | 80 | 2.0 | 7.0 | 0.00 | 0.00 | 0.00 | 76 | 1013.3 |
| 20260508232601 | 82 | 115 | 1.0 | 6.0 | 0.00 | 0.00 | 0.00 | 76 | 1013.4 |
| 20260508232057 | 82 | 0 | 0.0 | 8.0 | 0.00 | 0.00 | 0.00 | 75 | 1013.4 |
| 20260508231559 | 82 | 67 | 2.0 | 8.0 | 0.00 | 0.00 | 0.00 | 75 | 1013.3 |
| 20260508231055 | 83 | 74 | 3.0 | 10.0 | 0.00 | 0.00 | 0.00 | 75 | 1013.2 |
| 20260508230556 | 83 | 76 | 4.0 | 10.0 | 0.00 | 0.00 | 0.00 | 74 | 1013.1 |
| 20260508230100 | 83 | 116 | 2.0 | 8.0 | 0.00 | 0.00 | 0.00 | 75 | 1013.2 |
| 20260508225556 | 83 | 129 | 3.0 | 9.0 | 0.00 | 0.00 | 0.00 | 74 | 1013.2 |
| 20260508225056 | 83 | 99 | 4.0 | 10.0 | 0.00 | 0.00 | 0.00 | 74 | 1013.1 |
| 20260508224559 | 83 | 84 | 4.0 | 10.0 | 0.00 | 0.00 | 0.00 | 74 | 1013.1 |
| 20260508224055 | 83 | 59 | 3.0 | 9.0 | 0.00 | 0.00 | 0.00 | 74 | 1013.0 |
| 20260508223601 | 83 | 127 | 4.0 | 9.0 | 0.00 | 0.00 | 0.00 | 74 | 1013.2 |
| 20260508223058 | 83 | 138 | 4.0 | 9.0 | 0.00 | 0.00 | 0.00 | 74 | 1013.2 |
| 20260508222557 | 83 | 80 | 2.0 | 9.0 | 0.00 | 0.00 | 0.00 | 73 | 1013.2 |
| 20260508222057 | 83 | 102 | 2.0 | 9.0 | 0.00 | 0.00 | 0.00 | 73 | 1013.1 |
| 20260508221558 | 83 | 209 | 3.0 | 10.0 | 0.00 | 0.00 | 0.00 | 74 | 1013.1 |
| 20260508221058 | 83 | 69 | 4.0 | 10.0 | 0.00 | 0.00 | 0.00 | 73 | 1013.2 |
| 20260508220557 | 84 | 103 | 3.0 | 9.0 | 0.00 | 0.00 | 0.00 | 74 | 1013.2 |
| 20260508220103 | 83 | 92 | 4.0 | 10.0 | 0.00 | 0.00 | 0.00 | 73 | 1013.3 |
| 20260508215556 | 84 | 74 | 6.0 | 10.0 | 0.00 | 0.00 | 0.00 | 73 | 1013.3 |
| 20260508215101 | 84 | 96 | 3.0 | 12.0 | 0.00 | 0.00 | 0.00 | 74 | 1013.2 |
| 20260508214558 | 84 | 98 | 4.0 | 12.0 | 0.00 | 0.00 | 0.00 | 74 | 1013.4 |
| 20260508214100 | 84 | 91 | 4.0 | 11.0 | 0.00 | 0.00 | 0.00 | 74 | 1013.2 |
| 20260508213556 | 84 | 76 | 6.0 | 11.0 | 0.00 | 0.00 | 0.00 | 74 | 1013.1 |
| 20260508213101 | 84 | 134 | 4.0 | 11.0 | 0.00 | 0.00 | 0.00 | 73 | 1013.1 |
| 20260508212558 | 85 | 104 | 6.0 | 12.0 | 0.00 | 0.00 | 0.00 | 73 | 1013.1 |
| 20260508212057 | 85 | 94 | 2.0 | 12.0 | 0.00 | 0.00 | 0.00 | 72 | 1013.3 |
| 20260508211559 | 85 | 96 | 3.0 | 12.0 | 0.00 | 0.00 | 0.00 | 72 | 1013.3 |
| 20260508211058 | 85 | 67 | 5.0 | 10.0 | 0.00 | 0.00 | 0.00 | 72 | 1013.2 |
| 20260508210600 | 86 | 116 | 3.0 | 9.0 | 0.00 | 0.00 | 0.00 | 72 | 1013.2 |
| 20260508210058 | 86 | 122 | 4.0 | 9.0 | 0.00 | 0.00 | 0.00 | 72 | 1013.3 |
| 20260508205556 | 86 | 0 | 3.0 | 10.0 | 0.00 | 0.00 | 0.00 | 72 | 1013.4 |
| 20260508205056 | 85 | 82 | 5.0 | 10.0 | 0.00 | 0.00 | 0.00 | 72 | 1013.5 |
| 20260508204601 | 86 | 99 | 2.0 | 12.0 | 0.00 | 0.00 | 0.00 | 72 | 1013.5 |
| 20260508204058 | 85 | 89 | 4.0 | 12.0 | 0.00 | 0.00 | 0.00 | 72 | 1013.6 |
| 20260508203558 | 85 | 109 | 6.0 | 12.0 | 0.00 | 0.00 | 0.00 | 72 | 1013.7 |
| 20260508203110 | 85 | 68 | 4.0 | 10.0 | 0.00 | 0.00 | 0.00 | 72 | 1013.8 |
| 20260508202558 | 85 | 49 | 5.0 | 11.0 | 0.00 | 0.00 | 0.00 | 71 | 1013.8 |
| 20260508202059 | 86 | 43 | 4.0 | 11.0 | 0.00 | 0.00 | 0.00 | 71 | 1013.9 |
| 20260508201558 | 86 | 107 | 4.0 | 10.0 | 0.00 | 0.00 | 0.00 | 71 | 1014.0 |
| 20260508201056 | 86 | 136 | 4.0 | 12.0 | 0.00 | 0.00 | 0.00 | 71 | 1014.0 |
| 20260508200556 | 86 | 82 | 5.0 | 12.0 | 0.00 | 0.00 | 0.00 | 71 | 1014.0 |
| 20260508200111 | 86 | 102 | 5.0 | 13.0 | 0.00 | 0.00 | 0.00 | 70 | 1014.1 |
| 20260508195555 | 85 | 119 | 6.0 | 13.0 | 0.00 | 0.00 | 0.00 | 70 | 1014.0 |
| 20260508195100 | 86 | 127 | 4.0 | 11.0 | 0.00 | 0.00 | 0.00 | 70 | 1014.0 |
| 20260508194557 | 86 | 109 | 4.0 | 10.0 | 0.00 | 0.00 | 0.00 | 70 | 1014.0 |
| 20260508194057 | 86 | 128 | 4.0 | 10.0 | 0.00 | 0.00 | 0.00 | 69 | 1014.0 |
| 20260508193557 | 86 | 121 | 4.0 | 12.0 | 0.00 | 0.00 | 0.00 | 68 | 1014.2 |
| 20260508193150 | 86 | 72 | 3.0 | 12.0 | 0.00 | 0.00 | 0.00 | 69 | 1014.2 |
| 20260508192557 | 86 | 53 | 6.0 | 12.0 | 0.00 | 0.00 | 0.00 | 69 | 1014.3 |
| 20260508192059 | 87 | 131 | 6.0 | 11.0 | 0.00 | 0.00 | 0.00 | 67 | 1014.4 |
| 20260508191603 | 87 | 63 | 4.0 | 10.0 | 0.00 | 0.00 | 0.00 | 66 | 1014.3 |
| 20260508191059 | 87 | 122 | 4.0 | 8.0 | 0.00 | 0.00 | 0.00 | 67 | 1014.4 |
| 20260508190556 | 87 | 117 | 3.0 | 9.0 | 0.00 | 0.00 | 0.00 | 67 | 1014.5 |
| 20260508190059 | 87 | 80 | 4.0 | 10.0 | 0.00 | 0.00 | 0.00 | 67 | 1014.6 |
| 20260508185559 | 87 | 123 | 3.0 | 11.0 | 0.00 | 0.00 | 0.00 | 67 | 1014.6 |
| 20260508185057 | 87 | 47 | 4.0 | 11.0 | 0.00 | 0.00 | 0.00 | 64 | 1014.7 |
| 20260508184608 | 87 | 74 | 4.0 | 11.0 | 0.00 | 0.00 | 0.00 | 64 | 1014.7 |
| 20260508184056 | 87 | 99 | 4.0 | 10.0 | 0.00 | 0.00 | 0.00 | 64 | 1014.7 |
| 20260508183555 | 88 | 86 | 5.0 | 10.0 | 0.00 | 0.00 | 0.00 | 61 | 1014.7 |
| 20260508183125 | 88 | 103 | 2.0 | 13.0 | 0.00 | 0.00 | 0.00 | 61 | 1014.8 |
| 20260508182558 | 87 | 67 | 4.0 | 13.0 | 0.00 | 0.00 | 0.00 | 64 | 1014.8 |
| 20260508182101 | 87 | 81 | 5.0 | 13.0 | 0.00 | 0.00 | 0.00 | 58 | 1014.9 |
| 20260508181607 | 87 | 55 | 3.0 | 11.0 | 0.00 | 0.00 | 0.00 | 64 | 1015.0 |
| 20260508181056 | 87 | 58 | 4.0 | 11.0 | 0.00 | 0.00 | 0.00 | 63 | 1015.0 |
| 20260508180559 | 87 | 79 | 5.0 | 11.0 | 0.00 | 0.00 | 0.00 | 60 | 1015.1 |
| 20260508180059 | 87 | 102 | 4.0 | 10.0 | 0.00 | 0.00 | 0.00 | 62 | 1015.2 |
| 20260508175556 | 87 | 79 | 5.0 | 11.0 | 0.00 | 0.00 | 0.00 | 62 | 1015.3 |
| 20260508175055 | 87 | 101 | 4.0 | 11.0 | 0.00 | 0.00 | 0.00 | 60 | 1015.3 |
| 20260508174603 | 87 | 112 | 5.0 | 11.0 | 0.00 | 0.00 | 0.00 | 60 | 1015.3 |
| 20260508174057 | 87 | 128 | 3.0 | 12.0 | 0.00 | 0.00 | 0.00 | 59 | 1015.4 |
| 20260508173556 | 87 | 65 | 4.0 | 12.0 | 0.00 | 0.00 | 0.00 | 59 | 1015.4 |
| 20260508173102 | 87 | 61 | 4.0 | 11.0 | 0.00 | 0.00 | 0.00 | 61 | 1015.5 |
| 20260508172556 | 87 | 54 | 5.0 | 11.0 | 0.00 | 0.00 | 0.00 | 61 | 1015.5 |
| 20260508172100 | 87 | 96 | 6.0 | 11.0 | 0.00 | 0.00 | 0.00 | 60 | 1015.5 |
| 20260508171558 | 88 | 92 | 4.0 | 11.0 | 0.00 | 0.00 | 0.00 | 59 | 1015.6 |
| 20260508171101 | 87 | 88 | 5.0 | 11.0 | 0.00 | 0.00 | 0.00 | 60 | 1015.6 |
| 20260508170559 | 87 | 56 | 4.0 | 11.0 | 0.00 | 0.00 | 0.00 | 58 | 1015.7 |
| 20260508165558 | 87 | 128 | 3.0 | 10.0 | 0.00 | 0.00 | 0.00 | 57 | 1015.7 |
| 20260508165058 | 87 | 115 | 3.0 | 10.0 | 0.00 | 0.00 | 0.00 | 57 | 1015.8 |
| 20260508164602 | 87 | 92 | 5.0 | 10.0 | 0.00 | 0.00 | 0.00 | 56 | 1015.8 |
| 20260508164059 | 87 | 109 | 5.0 | 10.0 | 0.00 | 0.00 | 0.00 | 57 | 1015.8 |
| 20260508163603 | 88 | 96 | 4.0 | 9.0 | 0.00 | 0.00 | 0.00 | 56 | 1015.9 |
| 20260508163104 | 88 | 78 | 3.0 | 9.0 | 0.00 | 0.00 | 0.00 | 56 | 1016.1 |
| 20260508162600 | 88 | 67 | 4.0 | 11.0 | 0.00 | 0.00 | 0.00 | 58 | 1016.1 |
| 20260508162101 | 89 | 119 | 4.0 | 11.0 | 0.00 | 0.00 | 0.00 | 60 | 1016.2 |
| 20260508161600 | 89 | 61 | 1.0 | 10.0 | 0.00 | 0.00 | 0.00 | 59 | 1016.1 |
| 20260508161058 | 89 | 110 | 4.0 | 10.0 | 0.00 | 0.00 | 0.00 | 58 | 1016.2 |
| 20260508160602 | 90 | 74 | 1.0 | 7.0 | 0.00 | 0.00 | 0.00 | 58 | 1016.2 |
| 20260508160100 | 89 | 39 | 3.0 | 7.0 | 0.00 | 0.00 | 0.00 | 57 | 1016.3 |
| 20260508155603 | 89 | 0 | 2.0 | 6.0 | 0.00 | 0.00 | 0.00 | 56 | 1016.5 |
| 20260508155100 | 89 | 73 | 1.0 | 5.0 | 0.00 | 0.00 | 0.00 | 56 | 1016.7 |
| 20260508154623 | 89 | 312 | 2.0 | 5.0 | 0.00 | 0.00 | 0.00 | 56 | 1016.7 |
| 20260508154057 | 89 | 27 | 1.0 | 7.0 | 0.00 | 0.00 | 0.00 | 51 | 1016.7 |
| 20260508153558 | 89 | 242 | 1.0 | 7.0 | 0.00 | 0.00 | 0.00 | 53 | 1016.6 |
| 20260508153100 | 88 | 62 | 0.0 | 6.0 | 0.00 | 0.00 | 0.00 | 53 | 1016.7 |
| 20260508152558 | 88 | 86 | 3.0 | 7.0 | 0.00 | 0.00 | 0.00 | 52 | 1016.6 |
| 20260508152057 | 88 | 46 | 2.0 | 7.0 | 0.00 | 0.00 | 0.00 | 53 | 1016.7 |
| 20260508151609 | 88 | 86 | 1.0 | 3.0 | 0.00 | 0.00 | 0.00 | 54 | 1016.6 |
| 20260508151101 | 88 | 0 | 0.0 | 5.0 | 0.00 | 0.00 | 0.00 | 57 | 1016.7 |
| 20260508150601 | 88 | 0 | 1.0 | 6.0 | 0.00 | 0.00 | 0.00 | 56 | 1016.7 |
| 20260508150101 | 88 | 267 | 1.0 | 6.0 | 0.00 | 0.00 | 0.00 | 58 | 1016.7 |
| 20260508145600 | 87 | 5 | 0.0 | 5.0 | 0.00 | 0.00 | 0.00 | 59 | 1016.8 |
| 20260508145058 | 87 | 9 | 0.0 | 5.0 | 0.00 | 0.00 | 0.00 | 58 | 1016.8 |
| 20260508144610 | 87 | 5 | 0.0 | 5.0 | 0.00 | 0.00 | 0.00 | 60 | 1016.8 |
| 20260508144058 | 86 | 0 | 1.0 | 5.0 | 0.00 | 0.00 | 0.00 | 60 | 1016.7 |
| 20260508143600 | 86 | 57 | 0.0 | 7.0 | 0.00 | 0.00 | 0.00 | 61 | 1016.6 |
| 20260508143109 | 86 | 9 | 3.0 | 7.0 | 0.00 | 0.00 | 0.00 | 61 | 1016.8 |
| 20260508142558 | 86 | 0 | 1.0 | 5.0 | 0.00 | 0.00 | 0.00 | 63 | 1016.8 |
| 20260508142101 | 85 | 281 | 0.0 | 5.0 | 0.00 | 0.00 | 0.00 | 64 | 1016.8 |
| 20260508141605 | 85 | 0 | 0.0 | 3.0 | 0.00 | 0.00 | 0.00 | 64 | 1016.7 |
| 20260508141059 | 85 | 0 | 0.0 | 5.0 | 0.00 | 0.00 | 0.00 | 65 | 1016.7 |
| 20260508140559 | 84 | 0 | 2.0 | 6.0 | 0.00 | 0.00 | 0.00 | 65 | 1016.7 |
| 20260508140101 | 84 | 360 | 0.0 | 6.0 | 0.00 | 0.00 | 0.00 | 65 | 1016.8 |
| 20260508135559 | 84 | 339 | 0.0 | 6.0 | 0.00 | 0.00 | 0.00 | 66 | 1016.8 |
| 20260508135058 | 83 | 352 | 1.0 | 6.0 | 0.00 | 0.00 | 0.00 | 66 | 1016.8 |
| 20260508134623 | 83 | 25 | 0.0 | 7.0 | 0.00 | 0.00 | 0.00 | 68 | 1016.7 |
| 20260508134058 | 83 | 248 | 1.0 | 7.0 | 0.00 | 0.00 | 0.00 | 68 | 1016.6 |
| 20260508133558 | 82 | 336 | 2.0 | 9.0 | 0.00 | 0.00 | 0.00 | 68 | 1016.6 |
| 20260508133104 | 82 | 0 | 2.0 | 9.0 | 0.00 | 0.00 | 0.00 | 68 | 1016.6 |
| 20260508132600 | 82 | 344 | 2.0 | 9.0 | 0.00 | 0.00 | 0.00 | 68 | 1016.6 |
| 20260508132059 | 81 | 360 | 0.0 | 5.0 | 0.00 | 0.00 | 0.00 | 69 | 1016.5 |
| 20260508131608 | 81 | 0 | 1.0 | 5.0 | 0.00 | 0.00 | 0.00 | 69 | 1016.5 |
| 20260508131100 | 80 | 0 | 1.0 | 4.0 | 0.00 | 0.00 | 0.00 | 70 | 1016.5 |
| 20260508130602 | 80 | 282 | 1.0 | 5.0 | 0.00 | 0.00 | 0.00 | 71 | 1016.5 |
| 20260508130058 | 79 | 0 | 0.0 | 5.0 | 0.00 | 0.00 | 0.00 | 72 | 1016.5 |
| 20260508125600 | 79 | 5 | 1.0 | 5.0 | 0.00 | 0.00 | 0.00 | 72 | 1016.5 |
| 20260508125101 | 78 | 0 | 0.0 | 6.0 | 0.00 | 0.00 | 0.00 | 73 | 1016.4 |
| 20260508124603 | 78 | 0 | 1.0 | 8.0 | 0.00 | 0.00 | 0.00 | 74 | 1016.3 |
| 20260508124101 | 77 | 19 | 1.0 | 8.0 | 0.00 | 0.00 | 0.00 | 75 | 1016.4 |
| 20260508123600 | 77 | 277 | 3.0 | 8.0 | 0.00 | 0.00 | 0.00 | 76 | 1016.3 |
| 20260508123101 | 76 | 333 | 1.0 | 8.0 | 0.00 | 0.00 | 0.00 | 79 | 1016.3 |
| 20260508122558 | 75 | 11 | 0.0 | 4.0 | 0.00 | 0.00 | 0.00 | 80 | 1016.2 |
| 20260508122058 | 75 | 0 | 1.0 | 8.0 | 0.00 | 0.00 | 0.00 | 81 | 1016.1 |
| 20260508121559 | 74 | 17 | 2.0 | 8.0 | 0.00 | 0.00 | 0.00 | 83 | 1016.1 |
| 20260508121059 | 74 | 0 | 1.0 | 8.0 | 0.00 | 0.00 | 0.00 | 84 | 1016.1 |
| 20260508120559 | 73 | 240 | 0.0 | 2.0 | 0.00 | 0.00 | 0.00 | 84 | 1016.1 |
| 20260508120100 | 73 | 0 | 0.0 | 0.0 | 0.00 | 0.00 | 0.00 | 85 | 1016.1 |
| 20260508115558 | 72 | 0 | 0.0 | 0.0 | 0.00 | 0.00 | 0.00 | 85 | 1015.9 |
| 20260508115058 | 72 | 0 | 0.0 | 0.0 | 0.00 | 0.00 | 0.00 | 85 | 1015.9 |
| 20260508114604 | 72 | 0 | 0.0 | 0.0 | 0.00 | 0.00 | 0.00 | 85 | 1015.8 |
| 20260508114100 | 71 | 0 | 0.0 | 0.0 | 0.00 | 0.00 | 0.00 | 84 | 1015.8 |
| 20260508113601 | 71 | 0 | 0.0 | 0.0 | 0.00 | 0.00 | 0.00 | 84 | 1015.8 |
| 20260508113058 | 71 | 0 | 0.0 | 0.0 | 0.00 | 0.00 | 0.00 | 84 | 1015.8 |
| 20260508112604 | 71 | 0 | 0.0 | 0.0 | 0.00 | 0.00 | 0.00 | 83 | 1015.7 |
| 20260508112058 | 71 | 0 | 0.0 | 0.0 | 0.00 | 0.00 | 0.00 | 83 | 1015.6 |
| 20260508111601 | 70 | 0 | 0.0 | 0.0 | 0.00 | 0.00 | 0.00 | 83 | 1015.5 |
| 20260508111100 | 70 | 0 | 0.0 | 0.0 | 0.00 | 0.00 | 0.00 | 82 | 1015.4 |
| 20260508110559 | 70 | 0 | 0.0 | 0.0 | 0.00 | 0.00 | 0.00 | 82 | 1015.3 |
| 20260508110113 | 70 | 0 | 0.0 | 0.0 | 0.00 | 0.00 | 0.00 | 81 | 1015.2 |
| 20260508105602 | 70 | 0 | 0.0 | 0.0 | 0.00 | 0.00 | 0.00 | 81 | 1015.2 |
| 20260508105058 | 70 | 0 | 0.0 | 0.0 | 0.00 | 0.00 | 0.00 | 81 | 1015.1 |
| 20260508104559 | 70 | 0 | 0.0 | 0.0 | 0.00 | 0.00 | 0.00 | 81 | 1015.1 |
| 20260508104058 | 71 | 0 | 0.0 | 0.0 | 0.00 | 0.00 | 0.00 | 80 | 1015.0 |
| 20260508103558 | 71 | 0 | 0.0 | 0.0 | 0.00 | 0.00 | 0.00 | 80 | 1015.0 |
| 20260508103059 | 71 | 0 | 0.0 | 0.0 | 0.00 | 0.00 | 0.00 | 80 | 1014.8 |
| 20260508102558 | 71 | 0 | 0.0 | 0.0 | 0.00 | 0.00 | 0.00 | 80 | 1014.7 |
| 20260508102058 | 71 | 0 | 0.0 | 0.0 | 0.00 | 0.00 | 0.00 | 80 | 1014.7 |
| 20260508101559 | 71 | 0 | 0.0 | 0.0 | 0.00 | 0.00 | 0.00 | 80 | 1014.6 |
| 20260508101057 | 71 | 0 | 0.0 | 0.0 | 0.00 | 0.00 | 0.00 | 80 | 1014.5 |
| 20260508100557 | 71 | 0 | 0.0 | 0.0 | 0.00 | 0.00 | 0.00 | 80 | 1014.5 |
| 20260508100111 | 72 | 0 | 0.0 | 0.0 | 0.00 | 0.00 | 0.00 | 80 | 1014.5 |
| 20260508095557 | 72 | 0 | 0.0 | 0.0 | 0.00 | 0.00 | 0.00 | 80 | 1014.5 |
| 20260508095058 | 72 | 0 | 0.0 | 0.0 | 0.00 | 0.00 | 0.00 | 79 | 1014.4 |
| 20260508094608 | 72 | 0 | 0.0 | 0.0 | 0.00 | 0.00 | 0.00 | 79 | 1014.4 |
| 20260508094057 | 72 | 0 | 0.0 | 0.0 | 0.00 | 0.00 | 0.00 | 79 | 1014.5 |
| 20260508093601 | 72 | 0 | 0.0 | 0.0 | 0.00 | 0.00 | 0.00 | 79 | 1014.4 |
| 20260508093059 | 73 | 0 | 0.0 | 0.0 | 0.00 | 0.00 | 0.00 | 79 | 1014.4 |
| 20260508092557 | 73 | 0 | 0.0 | 0.0 | 0.00 | 0.00 | 0.00 | 79 | 1014.5 |
| 20260508092058 | 73 | 0 | 0.0 | 0.0 | 0.00 | 0.00 | 0.00 | 78 | 1014.4 |
| 20260508091604 | 73 | 0 | 0.0 | 0.0 | 0.00 | 0.00 | 0.00 | 78 | 1014.4 |
| 20260508091058 | 73 | 0 | 0.0 | 0.0 | 0.00 | 0.00 | 0.00 | 78 | 1014.3 |
| 20260508090558 | 73 | 0 | 0.0 | 0.0 | 0.00 | 0.00 | 0.00 | 78 | 1014.3 |
| 20260508090114 | 73 | 0 | 0.0 | 0.0 | 0.00 | 0.00 | 0.00 | 78 | 1014.4 |
| 20260508085557 | 73 | 0 | 0.0 | 0.0 | 0.00 | 0.00 | 0.00 | 78 | 1014.4 |
| 20260508085056 | 73 | 0 | 0.0 | 0.0 | 0.00 | 0.00 | 0.00 | 78 | 1014.4 |
| 20260508084559 | 74 | 0 | 0.0 | 0.0 | 0.00 | 0.00 | 0.00 | 78 | 1014.3 |
| 20260508084058 | 74 | 0 | 0.0 | 0.0 | 0.00 | 0.00 | 0.00 | 78 | 1014.4 |
| 20260508083600 | 74 | 0 | 0.0 | 2.0 | 0.00 | 0.00 | 0.00 | 78 | 1014.4 |
| 20260508083059 | 74 | 0 | 0.0 | 2.0 | 0.00 | 0.00 | 0.00 | 77 | 1014.3 |
| 20260508082557 | 74 | 0 | 0.0 | 0.0 | 0.00 | 0.00 | 0.00 | 77 | 1014.3 |
| 20260508082057 | 74 | 0 | 0.0 | 0.0 | 0.00 | 0.00 | 0.00 | 77 | 1014.2 |
| 20260508081607 | 74 | 0 | 0.0 | 0.0 | 0.00 | 0.00 | 0.00 | 77 | 1014.2 |
| 20260508081057 | 74 | 0 | 0.0 | 0.0 | 0.00 | 0.00 | 0.00 | 77 | 1014.2 |
| 20260508080557 | 74 | 0 | 0.0 | 1.0 | 0.00 | 0.00 | 0.00 | 78 | 1014.3 |
| 20260508080059 | 74 | 0 | 0.0 | 1.0 | 0.00 | 0.00 | 0.00 | 78 | 1014.2 |
| 20260508075558 | 75 | 0 | 0.0 | 0.0 | 0.00 | 0.00 | 0.00 | 78 | 1014.2 |
| 20260508075101 | 75 | 0 | 0.0 | 0.0 | 0.00 | 0.00 | 0.00 | 78 | 1014.1 |
| 20260508074558 | 75 | 0 | 0.0 | 0.0 | 0.00 | 0.00 | 0.00 | 78 | 1014.2 |
| 20260508074057 | 75 | 0 | 0.0 | 0.0 | 0.00 | 0.00 | 0.00 | 78 | 1014.1 |
| 20260508073557 | 75 | 0 | 0.0 | 0.0 | 0.00 | 0.00 | 0.00 | 78 | 1014.1 |
| 20260508073111 | 76 | 0 | 0.0 | 0.0 | 0.00 | 0.00 | 0.00 | 79 | 1014.2 |
| 20260508072557 | 76 | 0 | 0.0 | 0.0 | 0.00 | 0.00 | 0.00 | 79 | 1014.3 |
| 20260508072057 | 76 | 0 | 0.0 | 0.0 | 0.00 | 0.00 | 0.00 | 79 | 1014.3 |
| 20260508071606 | 76 | 0 | 0.0 | 0.0 | 0.00 | 0.00 | 0.00 | 79 | 1014.3 |
| 20260508071058 | 77 | 0 | 0.0 | 0.0 | 0.00 | 0.00 | 0.00 | 79 | 1014.4 |